Theta_e
313 315 314 313 311 311 311 313 313 312 314 316 317 318 318 320 322 320 320 319 314 316 322 319 315 315 315 317 317 314 312 313 314 314 315 316 315 315 316 317 316 317 316 312 311 313 313 314 315 315 317 320 323 326 328 330 330 330 330 330 330 330 330 331 331 331 330 330 329 329 329 329 329 330 330 330 331 331 331 331 331 331 331 331 330 330
313 314 311 310 310 309 310 312 313 312 314 317 317 319 318 318 319 318 318 319 314 314 320 319 316 315 315 316 316 315 315 314 313 313 314 315 315 315 316 317 317 316 314 312 311 311 311 313 313 313 314 317 321 323 325 327 328 329 330 330 330 329 329 330 330 330 330 330 330 329 329 329 329 329 329 329 329 329 330 330 331 331 331 331 330 330
312 312 309 309 308 309 310 312 314 313 314 316 316 317 317 316 316 318 318 318 314 312 318 321 317 315 315 315 316 316 315 313 314 314 315 317 317 316 316 315 316 316 316 315 313 311 310 311 312 312 312 314 317 320 323 325 327 328 329 330 330 330 330 329 329 329 329 329 329 329 329 329 329 329 329 328 328 328 329 329 330 330 330 330 330 330
310 310 308 308 308 310 312 313 315 316 314 314 314 315 316 314 313 316 317 316 314 311 315 318 316 316 316 316 318 315 312 313 314 314 314 317 318 317 316 315 315 315 314 314 313 311 310 310 311 311 312 312 314 316 319 322 325 327 328 329 329 330 330 330 330 329 329 329 329 329 329 329 329 329 329 329 329 329 329 329 329 329 329 329 329 329
309 308 307 309 310 312 313 313 315 317 315 313 313 313 314 313 312 314 314 313 315 313 313 315 318 321 316 315 318 314 313 314 313 314 314 314 315 316 315 314 313 313 313 312 312 311 310 309 310 310 310 311 311 312 314 316 320 324 326 328 328 329 330 330 330 330 329 329 329 329 329 329 329 329 329 329 329 329 329 329 329 329 329 329 329 329
308 306 307 312 314 313 314 313 312 315 317 313 311 311 312 313 313 315 315 313 318 316 312 314 320 324 318 314 315 314 315 316 313 314 314 311 311 312 311 310 310 311 311 311 310 309 309 309 309 309 309 310 310 311 312 312 315 318 322 326 328 329 330 330 330 330 330 330 329 330 329 329 329 329 329 329 329 329 329 329 329 329 329 329 329 328
307 306 307 312 314 314 315 313 311 314 318 313 310 310 312 313 313 316 316 315 318 313 310 316 320 321 319 316 316 315 318 319 314 312 312 310 310 310 309 309 309 309 309 309 309 309 308 308 309 309 309 309 309 310 311 311 312 314 317 322 326 328 329 330 330 331 330 330 330 329 330 330 329 329 329 330 330 329 329 329 329 329 328 328 328 328
307 308 308 310 313 315 313 312 310 312 315 312 309 310 313 315 315 316 317 317 318 314 314 319 318 316 319 320 317 316 319 319 314 311 311 310 309 309 308 308 308 308 308 308 309 308 308 308 309 309 309 309 309 309 310 310 311 312 313 317 323 327 328 329 330 331 331 330 330 330 330 330 330 330 330 330 330 329 329 329 329 329 328 328 328 328
307 308 309 309 311 312 310 310 310 310 313 312 309 310 313 315 316 316 318 321 320 316 316 318 315 314 317 320 318 318 319 316 313 312 311 310 309 308 308 307 308 307 308 308 308 308 307 307 309 310 310 310 309 309 309 309 310 311 313 315 320 324 327 329 329 330 331 331 331 330 330 330 330 330 330 330 330 329 329 329 329 328 328 329 328 328
306 307 308 308 309 308 307 309 311 310 311 310 309 311 314 314 315 317 319 323 322 318 316 316 315 314 316 320 320 319 319 314 312 311 310 309 308 307 307 306 306 306 307 307 307 307 306 306 308 309 310 310 310 310 309 310 311 312 313 315 319 323 325 327 329 329 330 331 331 330 330 330 330 330 330 330 330 329 329 329 329 329 329 329 329 329
305 306 307 308 308 307 307 308 309 309 309 310 312 315 317 316 316 317 317 318 320 318 315 314 315 315 316 320 319 317 314 311 311 311 308 308 307 306 305 305 305 305 305 306 306 306 306 306 307 308 309 309 310 311 311 312 313 314 314 314 318 322 324 326 328 329 329 330 330 330 330 330 330 330 330 329 329 329 329 329 329 329 329 329 329 329
304 304 305 307 306 306 307 308 308 309 308 311 316 315 315 314 314 316 316 315 318 317 314 312 314 315 316 319 319 315 312 310 310 309 308 308 306 304 304 303 304 304 305 305 305 305 305 305 306 307 308 308 308 309 311 312 313 314 315 315 316 319 323 326 327 328 329 329 330 330 330 330 330 330 330 329 329 329 329 329 329 329 328 328 329 329
303 303 302 305 306 303 306 309 310 310 310 313 318 316 314 312 311 314 312 312 316 315 311 310 311 312 314 317 318 315 312 310 308 307 307 307 305 303 303 303 303 303 304 304 304 304 305 304 305 306 307 307 307 308 309 310 311 312 313 314 315 316 319 323 325 328 328 329 329 329 330 330 330 330 329 329 329 329 329 329 329 329 329 329 329 329
305 305 302 304 307 303 303 307 310 310 310 311 313 313 314 312 311 313 309 309 313 310 306 308 310 313 315 314 313 313 311 308 306 306 306 305 304 302 302 302 302 303 303 303 304 304 304 303 303 305 306 306 306 306 307 308 310 310 311 312 313 314 316 318 321 324 326 328 329 329 330 330 330 330 329 330 329 330 330 329 329 329 329 329 329 329
305 305 302 301 304 303 302 303 304 307 309 310 310 311 314 312 311 313 310 309 312 309 307 309 310 315 316 311 308 308 307 306 304 304 304 303 302 301 301 302 302 302 302 302 303 303 303 302 302 304 305 305 305 305 306 307 308 309 310 311 311 312 313 315 316 319 321 324 326 328 329 329 330 330 330 330 330 330 330 329 329 329 329 329 329 329
302 302 301 301 302 302 303 302 303 305 308 309 309 311 312 309 310 312 310 309 311 310 311 312 312 314 313 309 308 305 304 303 303 303 302 301 301 301 301 301 301 301 302 302 302 302 302 302 302 303 304 304 304 304 305 305 306 307 308 310 310 311 311 312 313 315 316 318 321 323 325 327 328 329 329 329 330 330 330 330 329 329 329 329 329 329
303 303 303 302 302 302 302 303 304 304 307 309 309 309 307 305 308 311 309 308 309 311 312 313 314 313 310 308 308 305 303 302 301 301 300 300 300 300 301 301 301 301 301 302 302 302 301 301 302 302 303 303 303 304 304 304 305 306 306 307 309 310 311 312 311 312 313 314 316 317 319 321 323 325 327 328 328 329 329 329 328 328 328 328 328 328
301 304 304 301 302 302 300 302 305 302 304 309 309 307 304 303 307 310 309 309 308 310 311 312 314 312 309 308 307 304 302 301 300 300 299 300 300 300 301 301 301 301 301 302 301 301 301 301 301 302 302 302 302 303 304 304 304 305 305 305 306 308 310 312 312 311 311 311 312 313 314 315 317 319 321 323 324 325 326 327 327 327 327 327 327 327
299 303 305 300 300 302 301 304 306 302 304 308 307 305 305 305 308 309 309 308 307 307 309 309 309 308 309 309 307 304 301 300 300 299 299 300 300 300 300 300 301 301 301 301 301 301 301 301 301 301 301 302 302 303 303 303 304 304 304 304 304 305 306 309 311 312 312 311 311 311 311 312 313 314 315 317 318 319 321 322 323 324 325 325 326 326
298 301 304 301 300 300 302 305 305 303 304 306 305 304 306 307 308 307 306 307 307 307 307 307 308 308 311 311 305 301 300 299 299 299 299 300 300 300 300 300 301 301 301 301 301 301 301 300 301 301 301 301 302 302 302 302 303 303 303 303 303 304 304 305 308 310 311 311 311 311 311 311 312 312 313 314 314 315 316 317 317 318 319 320 321 322
300 300 301 302 301 301 303 303 301 302 303 304 303 303 304 305 305 305 305 306 307 307 305 305 306 306 308 308 303 299 299 299 299 299 299 300 300 300 300 301 301 301 301 301 301 300 300 300 300 300 301 301 301 301 301 301 302 302 302 302 302 303 303 304 305 307 309 310 310 310 310 311 312 313 313 314 314 315 315 315 315 316 316 316 317 317
302 299 300 303 302 302 302 299 297 299 301 302 303 303 303 303 303 304 304 304 305 304 303 303 304 305 304 302 299 298 298 299 299 299 299 300 300 300 301 301 301 300 300 300 300 300 299 299 300 300 300 300 300 301 301 301 301 301 301 301 301 302 302 303 303 304 306 308 309 310 309 310 311 312 313 314 315 315 315 316 316 316 316 316 316 316
300 299 301 304 301 299 300 298 295 296 300 302 302 302 302 302 302 303 303 302 301 301 302 302 303 303 302 299 298 298 299 299 300 300 300 300 300 300 301 301 301 300 300 300 299 299 299 299 299 299 299 299 300 300 300 300 300 300 300 301 301 301 301 302 302 303 304 306 308 309 309 309 309 310 311 312 314 315 315 315 316 316 317 317 317 316
299 299 301 303 301 300 299 298 297 298 301 302 301 302 302 301 300 301 301 301 301 301 302 303 302 302 301 299 298 298 299 300 300 300 301 301 301 301 301 301 300 300 299 299 299 298 298 298 298 298 299 299 299 299 299 299 300 300 300 300 300 301 301 301 302 302 302 303 305 308 309 309 308 308 310 311 312 313 314 314 314 314 315 315 316 316
300 299 300 303 304 304 303 302 301 300 300 301 300 300 300 300 300 300 300 301 301 302 302 302 304 303 301 300 298 298 299 300 300 300 301 301 301 301 301 301 300 299 299 299 298 298 298 298 298 298 298 298 298 298 298 298 299 299 300 300 300 300 300 301 301 301 302 302 303 305 307 309 308 308 308 310 310 310 311 312 313 313 314 315 315 315
301 299 300 303 305 304 303 302 301 300 299 300 300 299 299 299 301 301 301 301 301 301 301 302 303 301 299 298 298 298 299 300 300 300 300 301 301 301 301 301 300 299 299 298 298 298 297 297 297 298 298 298 298 298 297 298 298 299 299 299 299 300 300 300 300 301 301 301 302 303 305 307 308 307 308 309 309 309 310 311 313 314 315 316 316 316
300 297 298 301 303 302 301 299 299 299 299 299 299 299 299 299 300 301 301 300 300 299 299 300 300 299 298 298 298 298 299 300 300 299 300 300 301 301 301 301 300 299 298 298 297 297 297 297 297 297 297 297 297 297 297 297 297 298 298 299 299 299 299 299 300 300 300 300 301 302 303 305 307 307 307 308 309 309 309 310 312 314 315 316 316 317
300 298 295 297 300 300 298 299 299 299 299 299 299 299 299 298 299 299 299 299 299 299 298 299 299 299 298 298 298 298 299 300 300 299 300 300 300 300 300 301 300 298 298 297 296 296 296 296 296 297 297 297 297 297 296 296 297 297 298 298 298 298 299 299 299 299 299 299 300 300 302 304 305 306 306 307 308 308 308 309 311 312 314 315 316 317
299 299 295 296 300 299 298 299 300 299 299 299 299 299 299 298 298 299 299 298 298 299 299 299 299 298 298 298 298 298 299 299 300 299 299 299 299 299 300 301 299 297 296 296 295 295 295 295 296 296 297 297 296 296 296 296 296 297 297 297 297 298 298 298 298 298 298 299 299 300 301 302 304 305 306 306 307 307 307 307 308 310 312 313 314 315
297 299 298 297 298 297 298 300 299 298 299 299 298 298 297 297 297 297 297 297 297 298 298 298 298 297 297 297 297 298 298 299 299 298 298 298 298 299 301 300 297 295 294 294 294 294 294 294 295 296 296 296 296 296 296 296 296 296 296 297 297 297 298 298 297 297 298 298 299 299 300 301 303 304 305 305 306 306 306 306 307 309 310 311 312 313
296 298 298 298 298 298 299 300 299 300 300 298 298 298 297 296 296 297 297 296 297 299 298 297 297 297 297 297 297 297 298 298 298 298 297 296 296 299 300 297 294 292 292 292 293 293 293 294 295 295 296 296 296 296 295 295 295 295 296 296 296 297 297 297 297 297 297 298 298 299 299 300 302 303 304 304 304 305 305 306 307 307 308 309 310 311
297 299 299 299 299 298 298 299 300 300 299 297 298 300 300 299 298 298 299 298 298 300 299 298 298 298 296 296 296 296 297 297 297 297 295 294 296 299 297 293 291 291 291 292 292 293 293 294 294 295 295 295 295 295 295 295 294 295 295 296 296 296 296 296 296 297 297 297 298 298 298 299 300 302 303 303 303 304 305 305 305 305 306 307 308 308
298 299 299 299 300 299 299 299 299 299 298 297 297 298 299 299 298 299 299 299 298 298 298 299 299 297 294 294 295 295 296 297 296 294 293 293 296 296 293 290 290 290 291 291 292 292 292 293 294 294 295 295 295 294 294 294 294 294 294 295 295 295 295 295 296 296 296 297 297 298 298 298 299 301 302 302 303 304 304 304 303 303 304 304 305 305
298 298 299 300 300 300 300 299 298 299 300 300 299 299 298 297 298 299 299 299 299 297 297 298 296 294 293 293 293 294 295 295 294 292 292 294 295 293 290 290 290 290 291 291 292 291 292 292 293 293 294 294 294 293 293 293 293 294 294 295 295 295 295 295 295 295 296 296 297 297 297 297 298 300 301 302 302 303 302 301 301 301 301 301 302 302
297 297 299 300 299 299 300 299 298 301 303 301 300 300 298 298 299 299 299 298 297 295 294 294 293 292 292 292 292 294 294 293 291 290 292 293 293 291 289 290 290 290 291 291 291 291 291 291 292 292 293 293 293 292 292 292 293 293 294 294 294 294 294 294 295 295 295 296 296 296 297 297 298 299 300 301 301 301 300 299 299 299 299 299 299 300
297 297 298 299 299 299 300 299 298 300 301 299 298 299 299 299 300 299 299 299 295 292 291 291 291 291 291 291 292 293 292 290 289 291 293 293 291 289 289 289 289 290 290 290 290 290 290 290 291 291 291 292 292 291 291 292 292 293 293 294 294 294 294 294 294 295 295 295 296 296 296 296 297 298 299 300 300 299 298 298 297 297 297 297 298 298
295 297 298 299 299 298 299 300 298 298 299 299 298 297 297 298 299 299 300 299 294 290 290 290 290 290 290 291 291 291 289 289 289 291 293 291 289 289 289 289 289 289 289 289 289 289 289 290 290 290 291 291 291 291 291 291 292 293 293 293 293 293 293 293 294 294 295 295 295 295 295 295 296 297 298 299 299 298 297 297 296 295 295 296 296 295
295 296 297 298 299 299 299 299 297 297 300 301 298 296 296 297 297 297 298 299 294 289 289 289 289 289 290 290 290 289 288 288 288 289 289 289 288 288 288 288 289 289 289 289 289 289 289 289 289 289 290 290 290 290 291 291 292 292 292 293 293 293 293 293 293 294 294 294 294 295 295 295 295 296 297 298 298 297 297 296 295 294 294 294 294 293
296 296 297 298 299 298 297 296 295 295 297 299 298 297 295 295 296 295 296 298 294 288 288 289 289 289 289 289 289 288 288 288 287 288 288 288 288 288 287 288 288 288 288 288 288 288 288 288 289 289 289 289 289 290 290 291 291 291 292 292 293 293 293 293 293 293 293 293 293 294 294 294 294 295 295 296 297 297 296 295 294 293 292 292 292 290
295 296 297 297 297 297 296 295 295 294 295 298 298 296 295 295 295 294 296 297 293 288 288 289 289 289 289 289 288 287 288 288 287 287 288 288 287 287 287 287 287 287 287 287 287 288 288 288 288 288 289 289 289 289 290 290 290 291 291 292 292 292 292 293 293 293 293 292 292 293 294 294 294 294 294 296 296 295 295 294 292 291 290 290 289 288
293 294 295 294 295 295 295 295 294 293 296 298 297 295 295 295 294 294 296 295 291 289 289 289 289 290 289 288 287 287 287 288 288 287 287 287 287 287 287 287 287 287 287 287 287 287 287 287 288 288 288 288 289 289 289 290 290 290 291 291 292 292 292 292 292 292 292 292 292 292 293 293 294 294 294 294 295 294 293 292 291 290 289 288 288 287
292 293 292 292 294 293 292 294 293 293 296 296 294 294 294 293 294 296 295 292 289 289 289 289 289 289 288 288 287 287 287 287 287 287 287 287 286 286 286 286 286 286 286 286 287 287 287 287 287 287 288 288 288 288 288 289 289 290 290 291 291 291 291 292 292 292 291 291 291 291 292 293 293 293 293 293 293 293 291 290 289 289 288 287 287 286
293 293 293 293 293 292 292 292 294 295 295 292 292 294 293 292 294 295 292 289 289 289 289 289 289 288 288 287 287 287 287 287 287 287 287 286 286 286 286 285 285 285 286 286 286 286 286 286 287 287 287 287 287 287 288 288 289 289 290 290 290 291 291 291 291 291 291 290 290 291 291 292 292 292 292 292 292 292 290 289 288 287 287 286 286 285
292 293 295 294 293 293 293 293 294 295 294 292 292 294 294 293 293 291 289 288 289 289 289 289 288 288 288 287 287 287 287 287 287 287 286 286 285 285 285 285 285 285 285 285 285 285 286 286 286 286 286 286 286 286 287 287 288 288 289 289 290 290 290 291 291 290 290 290 290 290 291 291 291 291 291 291 291 290 289 287 287 286 286 285 285 284
291 292 294 294 292 293 294 293 293 293 293 292 291 291 292 294 293 290 288 288 289 289 289 288 287 287 287 287 287 287 286 287 287 286 286 286 285 284 284 284 284 285 285 285 285 285 285 285 285 285 285 285 285 286 286 286 287 287 288 288 289 289 290 290 290 290 289 289 289 289 290 290 290 290 290 290 289 289 288 286 286 285 285 285 284 284
292 292 291 291 292 292 291 291 291 291 291 291 291 290 290 291 290 289 288 289 289 289 289 288 287 287 287 286 287 286 286 287 286 286 285 285 284 283 284 284 284 284 284 284 284 284 284 285 285 284 285 285 285 285 285 285 286 286 287 287 288 288 289 290 289 289 288 288 289 289 289 289 289 289 289 289 288 288 287 287 286 285 284 284 284 283
292 291 290 290 291 290 290 291 292 291 291 291 290 289 289 288 288 288 288 289 289 289 288 288 287 286 286 286 286 286 286 287 286 285 285 284 283 283 283 283 283 284 284 284 283 284 284 284 284 284 284 284 284 284 284 284 285 285 286 286 287 288 288 289 289 288 288 288 288 288 288 288 288 288 288 287 286 286 286 286 285 285 284 283 283 283
290 289 289 289 290 289 290 290 290 290 290 289 288 288 288 288 288 288 287 287 287 286 286 285 285 285 285 286 286 287 286 286 286 285 284 283 283 283 283 283 283 283 283 283 283 283 283 283 283 283 283 283 283 283 283 284 284 284 285 285 286 287 288 288 288 288 288 288 288 287 287 287 288 287 286 286 285 285 285 285 284 284 284 283 283 282
289 288 288 289 289 289 289 288 288 288 288 288 288 288 288 288 288 288 288 287 286 286 285 285 284 285 285 285 286 286 286 286 285 284 283 283 282 282 282 283 283 282 283 283 283 283 282 283 283 282 282 282 282 282 282 283 283 283 284 284 285 286 287 287 287 287 287 287 287 287 287 287 287 286 286 285 284 284 284 284 284 284 284 283 283 282
288 288 288 288 288 288 288 288 288 288 288 288 288 289 289 289 288 288 288 287 287 286 286 286 285 285 285 285 285 285 286 285 284 283 282 282 282 282 282 282 282 282 282 282 282 282 282 282 282 282 282 282 281 281 282 282 282 283 283 284 285 285 286 287 287 287 287 287 287 286 286 286 286 285 285 284 283 283 283 283 283 283 283 283 283 282
287 287 288 288 288 288 288 288 288 288 287 287 287 288 288 288 287 287 287 286 286 286 285 285 286 285 285 285 285 284 284 284 283 282 282 281 281 282 282 282 282 282 282 282 282 281 281 281 281 281 281 281 281 281 281 282 282 282 283 283 284 285 285 286 286 286 287 287 287 286 286 286 286 285 284 284 283 283 283 283 283 283 283 283 282 282
Wind_Speed
4 5 3 2 2 3 2 2 4 3 2 4 4 3 2 1 2 4 5 4 4 3 4 4 4 5 5 7 9 9 9 8 8 7 7 8 8 7 7 7 7 5 6 10 16 17 16 15 16 16 16 17 19 22 25 27 28 31 31 31 34 35 35 35 35 34 33 33 32 31 33 35 35 35 36 38 39 40 40 40 39 39 39 38 38 37
5 5 1 1 3 4 1 2 3 4 4 4 3 3 3 2 2 4 4 5 5 3 4 6 7 7 6 7 8 8 7 7 7 7 7 8 8 7 7 8 8 7 7 9 13 17 18 19 20 21 19 15 16 19 21 24 28 30 30 31 34 33 33 36 37 35 36 36 34 33 34 35 34 34 35 37 39 39 40 39 39 40 39 39 38 38
5 4 3 5 3 1 2 3 6 6 5 4 3 3 2 2 3 5 4 5 5 3 4 7 6 7 8 7 8 7 5 5 5 4 5 6 7 7 7 8 8 9 9 9 11 14 18 20 22 23 23 19 16 17 19 22 25 26 28 31 33 32 33 36 36 37 38 36 35 35 34 33 32 33 34 36 37 37 38 39 39 39 39 39 38 38
3 2 5 4 1 4 5 5 6 6 4 4 3 4 1 3 2 2 4 6 5 1 2 6 4 5 6 6 6 5 3 4 5 4 4 3 4 6 6 6 7 8 10 10 10 11 15 19 21 22 23 22 20 19 19 19 21 24 28 31 32 32 34 34 35 37 37 35 34 34 33 32 30 31 31 32 34 36 36 37 37 38 38 38 38 38
3 3 5 3 4 5 5 6 6 5 4 3 3 4 1 4 1 3 4 6 5 3 2 4 4 4 5 7 7 5 4 4 5 6 6 4 3 5 6 7 6 6 7 9 11 12 13 16 20 22 22 23 23 22 22 21 20 22 26 29 31 31 32 33 34 35 34 31 30 29 28 27 28 28 27 28 33 34 34 36 36 36 36 36 37 37
3 5 3 5 6 6 6 5 4 4 3 3 1 1 3 4 3 5 5 4 4 4 4 5 4 4 5 6 6 6 6 7 6 7 9 9 8 8 9 10 9 9 8 8 11 12 14 17 21 23 23 24 26 28 27 26 24 23 25 27 28 30 31 32 33 32 31 30 29 28 27 26 26 26 28 33 35 32 31 34 34 34 35 35 35 35
3 6 5 6 6 7 7 4 3 3 5 2 1 2 3 2 2 4 3 3 2 2 3 5 4 3 6 6 6 5 7 8 7 9 10 10 11 11 10 10 10 11 11 11 12 14 16 20 23 24 26 26 27 31 32 30 28 27 26 25 26 28 30 31 31 31 30 30 31 31 31 31 28 28 32 35 33 29 29 30 30 30 31 31 32 33
3 6 8 8 6 6 5 4 4 3 5 1 2 1 1 1 2 1 3 3 1 1 4 5 3 1 3 4 6 6 6 8 10 12 13 12 13 13 12 12 12 12 12 12 14 16 18 21 24 26 29 30 29 31 32 31 31 29 28 26 24 25 28 30 30 30 31 32 33 33 33 33 32 32 35 33 28 27 27 28 29 29 28 29 29 30
2 5 7 7 6 5 3 2 3 3 3 1 3 1 1 1 1 2 4 1 1 3 4 6 3 2 3 5 6 5 5 8 12 12 12 12 13 14 13 14 14 13 12 13 14 15 18 23 27 28 30 32 31 31 31 31 31 30 28 26 22 23 25 28 28 29 31 32 33 33 32 32 33 35 35 32 29 27 26 27 29 28 28 29 28 29
1 2 2 3 4 3 2 4 3 2 1 4 3 2 2 3 3 3 4 1 3 4 2 5 4 2 3 5 5 4 6 7 9 9 9 10 11 12 13 13 14 14 13 13 13 15 19 24 27 29 31 34 34 32 31 32 31 29 28 25 22 21 22 25 26 28 30 32 32 32 32 32 33 33 32 30 29 29 28 28 29 29 29 29 28 29
2 3 2 2 3 3 3 3 1 2 3 3 4 4 3 5 4 3 3 3 5 3 3 4 4 2 1 4 3 0 3 5 6 7 9 10 11 13 13 13 13 13 12 12 13 15 22 27 30 32 34 37 38 36 36 36 34 32 29 25 22 21 20 21 24 26 28 30 31 32 32 32 33 32 29 27 29 29 28 29 30 29 29 28 28 29
5 5 3 2 3 3 2 2 2 2 2 2 4 3 3 4 4 4 4 4 4 2 5 4 3 2 2 3 4 2 2 6 6 6 8 10 11 13 12 12 12 11 11 12 12 14 19 23 29 32 34 36 39 39 39 38 38 37 33 29 25 22 20 19 21 23 26 28 30 32 32 33 34 33 29 28 29 29 28 28 29 28 27 27 27 27
5 3 4 5 4 6 6 3 4 6 6 5 3 4 4 2 4 4 3 2 1 3 4 5 4 2 2 5 5 5 6 7 5 4 5 7 10 13 12 12 11 10 11 12 11 12 13 15 21 26 28 32 36 37 38 38 38 38 37 35 31 27 22 18 18 20 23 25 28 30 32 33 33 32 31 30 31 31 29 28 28 28 27 28 28 28
4 3 8 8 5 6 6 3 2 4 5 5 3 4 3 2 3 1 2 2 1 4 5 4 4 1 2 3 2 2 4 5 5 5 4 6 10 11 11 11 11 12 12 12 11 12 12 14 19 23 25 28 31 35 37 37 37 38 38 38 36 34 29 22 17 16 19 22 25 28 30 32 32 32 31 31 32 32 31 29 29 30 30 29 30 30
3 3 7 7 4 6 6 2 0 1 2 3 1 4 3 3 3 2 1 1 2 3 5 4 3 1 2 0 3 2 2 3 4 6 7 9 11 11 11 12 14 15 14 12 12 13 14 18 22 24 26 28 30 33 35 36 37 37 38 38 36 35 33 29 23 18 16 18 20 23 26 28 29 31 31 31 32 32 32 31 31 31 31 31 32 33
3 1 5 4 3 4 6 4 1 1 2 2 1 3 2 1 2 2 2 3 2 1 3 2 0 3 2 1 2 2 5 8 9 11 13 15 14 13 13 14 14 14 14 13 14 14 16 22 25 25 27 29 31 33 34 35 36 36 36 37 37 36 35 32 28 24 20 18 18 18 21 24 26 28 29 31 32 33 33 33 32 32 33 33 34 33
3 2 5 6 4 5 5 5 3 3 1 2 2 2 2 1 2 2 1 1 3 2 2 1 1 4 3 2 4 8 12 16 16 15 15 14 15 15 14 13 13 13 14 14 13 13 16 22 26 27 29 31 33 35 35 37 36 35 34 35 36 37 37 35 32 29 25 23 21 19 18 19 22 24 26 29 30 31 31 31 31 32 32 33 33 33
2 3 4 5 5 4 2 2 4 4 3 3 3 2 2 1 2 3 2 2 4 1 2 2 1 4 4 2 5 12 16 18 19 19 18 17 18 17 14 14 14 14 14 14 15 16 19 23 27 30 32 33 35 36 36 38 38 38 37 35 35 35 35 35 33 31 28 26 24 23 21 20 19 20 22 24 26 27 28 29 30 30 31 32 32 32
1 2 4 1 2 7 4 3 4 7 5 4 2 1 1 3 2 2 2 2 2 0 3 4 1 2 1 1 6 12 13 15 17 19 19 19 17 15 15 16 16 16 15 14 15 15 18 24 28 30 33 35 37 38 38 39 40 41 41 40 38 36 35 33 32 31 29 26 25 24 23 22 21 20 20 21 22 23 25 27 28 29 30 31 31 31
1 2 3 4 4 5 4 5 3 5 6 3 2 3 2 2 1 1 1 1 1 1 1 3 3 2 3 2 6 11 10 11 14 15 16 17 15 12 12 14 15 15 14 14 14 13 16 24 29 31 32 34 35 36 37 38 40 41 41 41 41 40 39 36 32 30 29 28 26 25 24 23 21 21 21 21 21 22 23 24 25 26 28 28 29 29
2 3 1 7 7 3 3 3 1 2 5 5 5 5 4 3 2 2 1 1 3 2 0 1 3 4 5 0 7 10 9 10 11 11 11 14 15 13 11 11 13 14 13 14 14 13 17 24 30 32 33 34 35 36 37 38 38 39 40 41 41 41 40 38 36 32 29 29 27 25 24 23 22 21 20 20 20 21 22 23 24 25 26 27 27 27
2 2 1 3 5 4 2 3 1 2 2 4 4 3 3 3 3 4 2 3 2 2 2 2 2 6 4 3 7 8 8 10 10 9 9 12 14 14 12 10 11 12 13 14 14 14 18 24 28 32 34 36 36 37 39 39 39 39 40 41 41 41 40 40 38 35 31 30 29 28 26 24 23 22 21 21 20 20 20 21 22 22 23 25 26 26
1 2 2 1 2 2 5 4 2 1 1 5 4 2 3 2 4 4 0 3 2 1 0 1 1 4 3 4 8 8 7 8 8 8 8 9 11 13 14 12 10 10 11 13 13 15 20 25 28 30 33 35 35 36 38 39 39 39 39 40 41 41 42 42 41 39 36 32 31 30 29 26 24 22 22 22 21 20 20 19 19 19 20 22 23 24
2 3 3 3 4 4 5 5 4 2 3 5 3 2 3 2 1 3 3 1 0 1 1 1 1 4 4 4 8 8 8 8 8 8 8 8 8 11 13 13 12 11 11 12 13 16 21 25 28 29 31 32 34 36 37 38 39 40 40 40 40 41 43 43 43 43 41 37 34 32 31 29 26 24 23 22 22 21 20 18 18 17 18 19 19 19
1 1 2 3 4 5 6 6 5 5 5 3 2 3 3 2 2 1 1 1 0 2 2 2 2 6 3 5 9 10 10 10 9 8 8 8 8 9 10 11 12 12 12 13 13 15 19 21 23 27 29 31 33 34 37 38 39 40 39 39 40 41 43 44 44 44 43 41 38 35 33 31 29 26 24 23 22 21 19 18 17 17 17 17 17 17
1 1 2 4 3 1 2 2 3 4 4 2 3 5 4 2 2 2 1 0 1 0 2 3 4 7 5 7 10 12 12 11 11 10 9 8 7 8 9 9 11 13 14 15 15 14 16 18 21 25 28 31 33 34 36 38 39 40 41 41 41 41 42 45 46 45 43 42 40 37 35 34 30 28 26 24 22 20 19 18 17 16 16 16 15 15
3 2 1 5 5 4 4 4 3 4 4 4 6 7 4 2 1 2 1 2 2 1 2 5 7 10 9 8 11 13 12 11 12 11 10 10 9 9 8 7 9 12 14 15 15 15 16 18 21 25 27 29 32 35 37 38 39 40 42 44 45 43 42 44 45 45 44 43 41 39 37 35 32 29 26 24 22 19 18 18 17 17 16 16 15 15
4 3 1 3 4 3 3 5 5 4 4 5 6 7 5 4 2 2 2 4 2 1 4 6 5 6 8 8 10 12 11 10 11 11 10 11 10 9 8 7 9 12 14 16 17 17 18 17 19 25 29 29 32 35 38 39 40 40 41 43 45 46 45 44 45 45 45 43 42 40 38 36 33 29 26 24 21 19 18 18 17 18 17 16 15 15
5 0 2 1 2 4 5 6 6 4 4 4 5 7 7 6 4 5 6 7 4 3 7 8 6 8 9 7 8 11 11 9 10 9 9 11 11 10 8 8 10 13 15 17 18 19 19 17 19 24 29 31 32 35 37 39 41 42 43 43 44 46 47 47 46 45 44 43 42 40 39 36 31 28 25 22 20 19 19 18 17 17 16 15 15 15
3 1 2 0 5 6 6 7 6 4 4 4 6 8 7 7 7 7 8 7 6 8 11 10 11 12 8 4 7 10 10 8 7 8 9 13 14 12 9 8 11 13 15 17 18 18 18 19 22 26 29 31 33 35 36 37 40 43 44 44 44 44 46 48 47 46 43 43 43 41 39 35 31 27 24 21 19 19 20 19 17 16 15 14 13 13
2 2 1 1 3 5 6 6 4 4 4 5 9 10 6 5 5 5 5 4 5 7 9 7 9 8 4 3 6 9 9 8 8 10 12 14 14 12 10 11 13 15 16 17 17 18 18 20 25 28 29 30 33 34 35 36 39 41 44 45 45 45 47 47 47 46 44 43 43 42 39 35 30 26 23 20 18 18 19 19 17 16 14 13 12 12
2 1 3 2 1 3 4 5 6 6 4 5 9 10 5 3 2 3 4 4 5 5 5 4 4 3 4 5 6 6 8 9 9 11 13 15 14 11 11 13 16 18 18 18 18 17 17 19 23 27 30 32 34 34 35 37 38 39 41 44 47 48 48 47 46 46 45 45 44 42 39 35 30 25 22 20 18 17 18 18 17 15 14 12 12 11
0 1 2 2 2 2 3 5 6 5 4 3 4 5 4 3 3 3 4 4 4 4 2 2 2 3 6 6 6 7 8 10 11 10 11 14 12 10 12 15 18 19 19 18 18 18 18 20 25 29 32 34 35 36 37 38 38 39 39 41 45 48 47 46 45 44 45 45 43 41 39 35 29 25 22 19 17 16 16 17 16 14 13 11 11 10
2 2 1 1 2 3 5 8 6 4 2 3 4 4 4 4 4 4 4 3 1 1 1 2 3 5 6 6 8 8 8 9 11 12 11 10 7 10 15 18 18 17 17 17 17 18 21 25 29 33 35 36 37 39 40 40 40 41 41 39 41 45 46 45 44 43 43 43 42 39 37 33 28 25 22 19 17 16 15 15 15 13 11 10 9 9
2 3 1 1 1 3 4 6 5 2 4 6 4 3 4 4 4 3 1 1 3 4 4 4 5 6 7 7 7 6 6 8 11 13 12 7 6 11 16 16 16 17 16 16 17 20 25 29 32 34 37 39 40 40 41 41 42 43 42 40 39 41 43 43 43 43 41 41 41 39 36 33 29 25 22 19 17 15 15 14 13 12 11 10 10 10
3 2 1 1 2 2 2 1 1 4 7 5 3 3 1 1 1 1 1 3 3 3 4 5 5 6 7 8 7 5 7 9 9 8 8 6 8 10 12 13 14 15 16 18 20 24 29 31 33 35 37 39 41 40 39 41 42 42 43 41 38 38 39 39 41 42 41 40 39 38 35 32 29 26 22 19 17 15 14 14 13 12 12 11 11 12
4 2 1 1 2 1 1 2 2 6 9 4 0 1 0 1 1 0 1 4 3 3 4 5 6 7 8 7 6 6 8 9 7 5 5 7 10 11 12 14 15 16 20 24 27 30 33 35 35 37 38 40 41 39 39 41 43 42 42 41 38 37 37 36 37 39 40 40 39 38 35 32 29 27 23 20 18 16 15 15 14 13 13 14 15 15
5 2 0 0 1 1 1 3 2 4 6 3 2 2 3 3 4 2 1 4 2 2 4 4 4 7 7 6 7 8 8 9 8 6 7 10 13 15 17 20 21 22 24 27 30 32 35 37 38 39 39 38 39 40 40 42 43 42 40 39 38 37 36 35 34 35 38 41 42 40 36 32 29 27 25 21 20 18 17 16 15 15 15 16 18 18
4 3 1 1 2 1 1 2 2 3 5 5 5 4 5 4 3 2 1 3 2 2 3 2 4 7 6 6 8 8 7 8 9 8 9 12 16 17 17 21 25 28 29 29 31 32 34 37 39 40 39 37 38 42 43 44 44 40 37 38 38 36 35 34 35 36 38 41 43 41 37 32 29 27 26 23 21 20 19 18 17 17 17 18 20 21
1 2 2 3 3 3 3 3 3 4 7 5 5 4 6 3 4 3 3 4 2 4 4 2 4 7 5 6 7 6 5 7 8 9 11 14 18 19 19 21 25 29 31 32 33 33 34 36 36 37 39 38 39 41 43 44 43 39 37 38 37 35 35 36 37 39 40 42 42 40 37 32 29 27 26 25 23 21 20 20 19 19 19 20 22 23
2 2 2 2 3 4 5 4 3 4 6 4 5 6 5 2 4 1 5 5 3 6 5 2 4 6 5 5 6 5 5 7 9 10 11 13 16 18 21 25 28 30 31 33 35 35 34 34 34 36 39 40 41 41 42 42 40 39 39 38 36 36 38 40 40 41 41 42 41 38 35 32 29 27 26 25 23 22 21 21 22 22 23 24 25 26
1 1 1 2 2 2 3 3 3 5 4 3 4 5 2 2 2 5 5 3 4 6 5 4 5 6 5 6 6 6 8 9 10 10 10 11 12 15 20 25 27 30 31 33 35 36 34 33 34 36 39 42 42 42 41 41 39 39 39 36 37 41 43 43 42 41 41 42 40 37 34 31 29 27 25 24 23 22 22 23 24 24 25 27 28 29
3 2 2 3 2 1 1 2 3 5 4 2 1 2 2 1 4 4 2 3 4 5 6 5 5 5 6 8 9 9 10 10 10 10 10 10 12 15 20 23 23 26 29 31 33 35 34 32 33 35 39 42 42 41 41 40 39 39 38 37 41 46 46 44 43 42 41 41 39 36 33 30 28 26 24 24 24 24 24 25 26 26 26 27 28 29
4 4 2 3 2 3 3 4 4 3 4 2 2 1 3 4 4 2 1 4 4 4 4 5 5 6 7 8 9 10 10 10 11 11 10 11 12 15 19 21 22 24 27 28 31 34 34 32 32 35 38 40 41 41 40 39 39 39 39 41 45 46 46 46 44 42 41 40 38 35 32 29 26 25 24 24 24 25 25 26 27 27 27 27 28 28
5 5 3 3 4 4 5 6 5 3 4 4 4 4 6 6 4 3 4 5 5 4 4 4 6 7 7 8 9 9 9 10 11 11 11 11 11 14 18 20 22 24 25 27 30 32 33 33 34 35 36 39 41 42 40 38 38 39 42 45 46 46 45 45 44 42 41 40 37 34 31 27 24 24 24 26 26 27 27 28 28 27 26 27 27 27
5 3 3 2 3 3 4 8 9 9 9 7 5 4 5 5 4 4 5 6 5 5 5 5 7 9 9 8 8 9 10 10 11 12 12 10 11 15 19 21 22 24 26 27 29 31 32 33 34 34 35 38 41 41 40 39 38 39 43 47 47 46 45 44 43 42 41 39 37 33 28 24 23 23 24 26 28 29 30 31 31 29 27 27 26 26
3 3 3 4 3 4 5 7 7 7 7 6 5 5 6 7 7 5 6 6 6 7 7 7 8 9 10 9 9 10 11 11 11 12 11 9 10 14 18 20 21 23 25 27 29 31 30 29 31 32 33 36 39 40 40 40 40 41 44 47 47 46 44 43 41 40 39 37 35 31 26 23 22 23 24 26 27 27 28 30 30 29 29 28 27 25
1 1 3 6 7 6 8 10 9 8 8 7 8 8 9 10 10 7 6 7 7 7 9 11 11 9 9 9 9 10 11 11 11 11 10 9 11 14 17 19 22 24 26 29 31 31 29 28 29 31 33 35 37 39 40 40 42 43 45 47 46 45 43 42 41 39 38 36 33 29 25 23 23 23 24 26 27 27 28 29 29 29 30 31 32 30
1 3 3 3 4 5 10 14 13 10 9 9 10 10 8 8 9 8 7 7 7 8 10 13 14 13 12 12 12 10 11 12 12 11 10 9 11 14 18 20 22 24 27 29 31 31 30 29 29 31 33 35 37 38 39 40 42 44 45 46 46 43 41 40 40 39 37 34 30 26 23 22 23 24 24 25 25 26 26 27 28 28 28 29 32 33
4 8 6 3 4 7 9 11 9 7 7 7 8 9 8 7 8 7 7 8 8 9 10 12 14 15 16 17 16 12 10 12 14 13 11 11 13 18 20 22 23 24 27 29 31 32 32 32 31 32 34 37 38 38 38 40 42 44 45 46 45 42 40 39 38 37 35 32 27 24 22 21 22 23 23 23 23 22 21 20 22 24 24 24 26 28
8 10 7 6 8 10 10 10 7 5 7 9 8 7 8 7 6 8 10 10 10 13 13 11 12 13 14 17 20 16 11 13 17 16 12 13 19 23 23 24 23 24 26 29 29 30 31 33 33 32 33 37 39 38 38 40 42 44 46 46 45 43 41 39 36 33 32 30 26 23 21 20 21 21 21 22 22 22 20 18 17 18 20 21 22 23
Wind_Direction
68 66 49 81 355 305 313 34 118 143 97 87 77 68 83 74 300 290 284 297 357 8 289 299 311 299 296 294 295 307 329 338 335 346 342 328 327 329 333 330 324 306 280 295 308 314 325 335 338 332 314 291 276 268 257 249 248 246 243 239 238 238 236 233 231 229 229 230 230 232 235 239 241 243 244 246 247 248 250 250 251 252 253 254 255 256
65 71 52 248 269 254 224 71 93 90 66 68 80 67 39 23 289 276 281 313 3 38 288 310 336 314 294 287 286 304 324 330 337 348 339 328 327 329 337 335 328 319 309 317 323 329 339 347 348 346 340 320 292 282 269 256 253 250 244 242 241 239 235 234 231 228 228 229 228 230 234 238 241 242 244 246 248 249 250 251 251 252 253 254 254 255
54 61 325 284 258 139 61 61 73 77 79 69 72 78 37 335 301 293 305 329 357 36 299 319 341 309 301 292 281 302 321 317 330 331 304 305 318 329 338 334 330 329 329 334 334 335 340 343 343 343 342 336 318 303 287 271 262 254 247 246 244 240 237 236 233 230 230 230 230 232 236 239 241 244 246 249 252 253 253 253 253 253 253 254 254 254
66 16 319 303 131 86 40 35 68 73 67 67 75 83 345 301 347 306 316 334 342 35 279 305 321 307 325 329 306 312 311 296 311 309 279 261 290 310 318 322 325 329 331 335 334 333 335 336 337 337 337 336 331 322 310 292 274 261 253 250 247 242 240 239 236 234 233 231 232 235 237 240 243 247 250 253 255 254 254 254 254 254 253 254 254 254
76 327 319 4 73 91 69 38 59 78 46 34 78 94 310 299 290 240 297 332 343 9 337 340 353 327 349 0 336 323 321 325 338 345 347 347 320 310 324 338 337 332 330 332 334 335 335 331 330 330 331 331 330 327 323 314 297 278 266 259 252 246 242 241 240 238 235 231 231 232 234 237 241 246 249 250 252 251 250 252 252 253 254 255 256 255
45 336 347 52 52 67 81 52 42 102 77 16 65 144 259 262 249 271 316 2 23 359 340 27 40 304 330 359 338 331 342 342 354 5 360 354 354 355 353 353 353 349 345 342 340 339 338 336 333 331 332 331 329 327 326 322 314 299 284 270 258 250 245 243 242 239 235 230 227 226 224 227 232 238 240 241 245 247 248 252 253 254 256 255 256 256
20 354 25 63 63 60 71 57 25 105 95 42 194 203 258 212 199 295 340 53 68 303 324 51 105 264 329 343 320 331 338 334 356 9 0 355 358 359 357 355 356 354 356 357 354 352 349 346 343 338 336 334 329 327 328 325 320 312 302 285 266 256 250 246 243 239 234 229 227 226 225 226 227 233 240 242 245 248 251 255 257 257 257 257 257 257
358 1 24 34 48 58 57 43 16 72 99 92 222 182 326 67 80 346 73 97 182 254 343 19 99 146 334 301 296 326 346 352 4 1 354 356 356 355 358 360 0 359 1 1 358 356 354 352 350 344 339 336 332 329 330 328 323 318 311 299 279 263 255 250 244 239 234 230 228 228 228 230 230 234 243 247 250 253 255 257 259 260 260 260 260 260
12 18 24 25 37 50 35 316 324 19 84 248 278 315 322 44 84 95 90 109 302 54 356 339 37 83 304 285 308 347 29 15 360 351 348 353 354 356 357 358 0 1 2 2 358 354 352 352 352 348 344 343 341 336 333 331 327 323 318 309 292 271 261 254 247 240 237 234 231 230 230 232 234 237 243 248 250 253 256 258 259 260 261 261 262 262
35 6 357 42 42 24 310 276 282 33 351 276 318 1 45 51 51 64 72 92 39 52 323 322 15 70 289 293 320 10 44 15 345 340 346 350 354 357 357 358 360 1 359 358 356 352 350 350 351 351 352 353 352 348 344 339 336 333 328 319 303 284 271 260 250 243 239 236 233 231 231 234 238 241 243 246 249 250 252 255 257 258 259 260 261 263
322 311 298 58 23 295 275 288 256 154 259 295 12 18 27 30 29 40 32 62 55 12 273 318 4 67 343 290 281 41 69 28 347 341 348 352 358 358 358 359 358 358 356 353 352 350 349 349 352 355 356 355 354 355 354 352 350 347 342 334 317 298 284 268 255 247 241 237 234 232 233 236 240 243 244 246 248 249 249 251 254 255 257 258 259 261
16 16 353 318 329 343 2 1 14 11 345 42 53 42 39 7 7 25 0 34 66 282 269 312 339 85 102 266 264 267 33 31 8 349 345 348 356 358 357 357 355 355 352 352 353 350 348 350 353 354 354 352 352 354 354 355 356 356 355 350 335 318 303 284 265 253 245 239 236 235 235 237 242 244 243 244 248 250 250 251 254 255 257 258 258 259
24 26 351 324 337 18 24 19 6 2 17 40 48 54 63 19 9 17 345 14 89 248 270 317 348 85 196 253 271 312 1 9 356 353 344 346 359 360 355 352 350 351 353 353 353 350 349 350 351 351 349 348 348 350 350 352 354 356 358 358 351 342 331 310 285 265 253 246 241 240 239 239 242 243 243 244 247 250 251 251 254 255 256 256 257 257
349 330 4 3 350 14 32 54 20 347 360 15 41 82 93 94 63 353 310 1 306 272 283 318 13 39 279 278 251 321 348 327 329 358 4 8 9 359 350 350 350 353 357 355 351 350 348 346 347 347 346 345 345 346 349 352 353 353 355 357 354 352 350 341 320 291 270 259 252 248 246 244 244 245 246 247 248 252 253 253 254 256 256 257 258 259
28 344 4 10 334 356 25 47 185 276 339 344 118 109 113 127 123 188 212 139 236 276 300 333 39 158 247 71 150 173 269 298 353 14 17 19 10 358 354 357 357 355 353 351 348 346 345 345 346 346 345 344 343 344 348 351 353 355 355 355 352 351 351 351 345 332 307 285 270 260 254 252 250 250 250 251 252 255 257 257 257 258 260 261 262 264
67 293 311 326 300 1 9 321 285 80 352 321 115 78 58 151 142 150 155 170 191 312 306 325 38 221 220 40 32 25 355 3 22 21 16 11 2 359 0 359 358 352 347 347 346 343 343 344 345 345 345 344 343 344 345 347 350 353 354 355 354 352 350 348 347 345 337 321 302 285 271 264 259 257 256 256 257 258 260 261 260 261 263 264 266 267
19 296 310 341 349 31 27 331 353 64 344 336 47 38 318 215 138 106 60 2 50 56 287 319 305 295 332 359 351 14 13 9 12 11 11 6 358 1 0 355 353 348 344 343 341 339 340 343 344 345 345 344 344 343 343 344 347 349 352 354 354 353 352 350 345 341 338 334 326 315 302 288 275 268 264 263 263 263 263 264 264 264 266 266 267 269
350 292 312 11 358 340 8 339 349 22 55 65 45 339 314 38 91 97 79 14 40 77 284 328 295 314 352 344 340 9 16 9 4 1 1 1 0 358 353 351 348 345 343 340 341 342 342 344 345 344 344 344 344 343 342 344 345 348 351 352 351 350 350 349 346 340 336 332 328 324 320 312 301 289 279 274 271 270 269 268 268 269 269 270 271 272
32 316 297 4 328 305 337 47 358 353 26 84 96 321 63 81 45 38 82 51 38 68 303 323 316 318 324 253 352 10 19 12 3 358 354 353 356 353 347 348 347 345 346 345 347 346 343 344 345 344 345 344 345 345 345 346 346 348 350 350 350 348 346 345 343 340 338 334 329 324 320 316 312 306 298 291 285 280 276 274 274 274 273 275 275 275
35 59 305 306 318 314 360 43 21 338 347 15 36 16 49 113 118 17 100 110 95 123 311 335 345 312 237 217 22 22 23 18 7 356 347 343 346 350 348 347 346 347 347 346 348 346 344 344 345 346 347 346 347 347 348 349 348 348 348 348 347 346 344 344 342 339 337 336 332 326 323 319 314 310 305 299 294 289 284 281 280 279 278 278 277 276
3 63 347 316 332 5 37 27 37 325 345 11 28 20 7 355 26 37 26 78 90 103 137 352 326 285 252 184 46 35 24 17 8 353 340 335 338 344 351 351 347 346 347 348 348 348 348 347 347 348 349 349 350 350 351 351 349 348 347 346 344 342 341 341 340 337 334 333 331 328 324 322 319 315 309 304 298 293 289 286 284 282 281 279 278 277
18 49 63 326 344 23 359 334 342 274 350 51 45 29 22 10 47 60 343 334 49 102 154 162 267 279 281 57 61 50 26 6 356 348 340 335 334 338 347 355 352 347 346 349 349 348 350 350 349 349 350 352 352 351 351 350 349 348 346 345 343 340 339 338 337 335 332 329 329 327 324 321 319 316 312 308 303 298 294 290 287 284 282 280 278 277
84 72 70 315 296 302 290 310 14 266 108 68 53 66 76 52 77 98 281 316 356 13 65 137 217 273 284 66 64 48 22 356 344 344 343 336 332 335 340 348 355 351 346 347 348 350 350 349 350 350 351 352 352 351 349 348 347 345 344 344 342 340 338 337 335 334 332 328 325 324 322 319 317 315 310 307 304 300 298 295 293 291 288 286 283 279
63 57 49 328 302 309 307 330 21 26 66 58 17 42 70 44 81 148 188 193 327 282 314 52 324 269 267 54 50 32 10 350 342 346 347 339 335 338 338 340 348 351 349 349 348 349 350 350 350 351 351 351 350 349 348 346 345 343 342 343 342 339 337 335 334 333 332 329 325 321 318 316 315 313 309 307 305 303 303 303 304 303 301 299 297 292
32 36 73 36 354 351 348 348 352 356 33 55 327 6 37 1 348 16 94 92 230 216 151 132 239 255 268 32 24 7 359 350 345 349 347 338 338 341 337 336 341 345 349 352 351 349 349 350 351 350 348 347 347 346 345 344 343 341 340 340 341 338 335 335 334 333 331 329 325 320 316 313 313 311 308 307 306 307 308 308 308 307 306 305 304 304
95 89 110 100 88 61 316 299 300 331 359 9 317 332 346 347 24 55 50 356 268 303 101 152 236 274 312 18 10 353 350 344 342 347 345 338 341 341 335 333 338 343 346 349 351 350 348 347 347 347 346 344 344 344 344 342 341 340 338 338 339 338 336 334 333 332 330 328 324 319 315 312 310 310 308 306 305 306 307 306 303 301 300 297 297 300
113 55 100 138 152 178 210 236 258 316 322 300 304 311 310 318 83 113 113 226 217 355 311 234 242 279 308 356 2 344 339 339 339 343 343 339 340 339 333 329 337 344 346 345 347 348 347 345 343 343 343 342 341 342 341 341 340 339 337 336 337 337 336 334 332 330 329 326 322 317 314 311 309 307 306 304 303 303 304 303 299 296 292 288 286 286
99 23 5 155 182 220 252 274 286 310 293 275 293 296 284 278 247 162 194 225 188 51 286 252 242 278 303 345 353 331 328 335 334 337 340 335 332 335 334 332 342 348 347 344 344 344 344 342 340 340 340 340 340 340 340 339 338 337 336 334 334 335 335 334 331 329 327 324 319 314 313 312 308 304 302 302 300 300 301 300 296 292 287 281 277 275
102 320 243 166 303 292 277 277 278 278 263 257 269 274 277 276 237 205 228 231 191 196 250 262 287 297 302 331 341 324 322 327 326 329 333 328 327 334 336 338 348 351 348 345 342 339 339 338 337 337 336 337 338 339 338 337 336 335 334 333 333 332 333 333 330 327 325 322 316 313 312 310 305 300 298 297 296 297 299 298 293 289 284 276 270 266
108 233 210 249 316 299 274 271 271 260 261 273 272 268 271 270 247 232 243 235 207 227 249 267 290 292 291 319 330 319 314 313 319 330 338 335 331 332 338 345 350 349 346 343 339 336 335 334 333 334 334 336 337 337 336 335 333 332 331 330 331 330 330 330 328 325 323 319 315 313 310 308 304 297 294 292 291 295 298 295 289 284 279 272 263 256
8 331 282 259 300 295 284 289 290 260 248 275 287 288 292 284 266 252 250 230 211 244 259 265 275 279 291 345 327 312 307 314 334 347 346 336 329 331 341 348 348 346 344 341 337 334 333 332 332 333 333 334 334 333 333 332 330 329 328 328 328 327 328 328 326 323 321 318 316 314 310 308 303 294 289 287 286 291 294 290 283 277 272 266 257 245
8 321 316 343 324 281 273 284 295 295 296 293 289 290 289 268 254 251 243 208 195 233 265 270 269 297 334 334 321 310 311 323 344 355 345 329 325 337 346 345 345 345 342 338 335 333 332 331 330 330 330 330 330 330 330 329 327 325 325 325 325 325 325 325 324 323 321 319 318 315 311 309 301 289 284 282 281 286 286 280 275 270 263 257 249 238
207 251 323 341 293 284 298 294 299 334 1 320 269 254 250 252 250 256 268 249 219 221 267 292 311 328 320 319 329 332 333 337 345 349 334 320 325 341 344 343 344 341 336 333 331 330 330 328 327 326 325 326 326 326 327 326 324 322 322 322 322 322 322 321 322 322 320 320 319 316 312 308 298 285 279 276 274 278 277 270 265 260 254 248 239 229
236 248 277 309 286 313 322 314 328 30 61 248 231 201 214 247 251 252 278 288 254 106 341 298 316 322 323 335 339 338 344 343 336 327 315 311 330 345 343 341 337 330 326 326 326 326 327 326 324 323 322 322 323 324 325 324 322 320 320 321 321 321 320 319 320 320 319 319 317 315 311 305 294 281 274 269 268 269 267 261 256 250 243 237 225 213
262 259 287 337 257 275 302 323 351 12 224 240 254 239 216 211 209 211 219 158 91 50 7 338 330 326 334 339 332 335 342 330 319 308 301 312 353 348 337 331 325 323 323 323 323 323 324 324 323 322 321 321 322 323 323 322 321 320 320 321 321 319 318 318 317 318 318 318 317 315 311 304 291 277 268 262 259 259 256 252 247 239 229 216 202 193
231 243 265 238 221 242 289 348 332 265 261 262 275 284 307 105 136 75 97 182 139 61 2 338 330 328 334 331 326 336 329 313 303 289 292 329 351 338 324 317 318 319 318 318 319 319 319 320 319 319 318 318 319 320 320 320 320 319 318 320 320 318 317 317 315 316 318 319 318 316 312 304 291 275 263 254 250 248 245 241 236 227 212 196 182 173
204 224 260 252 211 192 230 235 253 295 302 314 6 284 7 165 240 292 248 225 170 70 0 329 324 326 328 324 325 331 322 314 310 294 300 329 328 318 314 311 311 311 312 315 316 315 316 317 317 318 318 317 318 319 319 319 320 319 318 318 319 318 317 315 313 314 318 318 318 316 311 304 290 274 259 248 242 238 234 232 225 212 197 182 168 159
206 233 272 249 232 150 311 293 304 314 298 260 197 250 262 237 224 184 204 233 192 40 349 323 316 321 323 324 329 333 330 328 324 314 318 324 322 322 321 317 314 314 313 314 314 314 316 317 318 318 318 317 317 319 321 320 320 319 317 317 318 318 316 314 312 315 318 317 317 315 310 302 290 273 256 243 236 231 227 222 213 199 186 175 162 151
204 262 301 277 275 319 9 282 254 251 263 236 201 246 290 269 191 119 359 255 221 352 337 313 316 320 323 326 330 339 341 330 318 314 323 323 321 323 321 317 318 318 317 316 316 315 316 318 319 319 319 319 319 320 322 321 320 319 317 316 318 318 314 313 314 316 316 316 315 314 308 300 288 272 254 240 232 226 220 213 203 189 177 168 156 146
143 287 267 232 252 253 245 255 231 232 261 249 196 235 281 246 137 77 318 264 274 336 326 326 325 317 318 324 328 336 331 310 301 306 314 314 313 315 314 313 315 316 316 317 317 316 317 319 319 319 319 319 319 320 322 321 319 318 316 316 317 316 313 314 315 315 315 314 314 313 307 298 286 270 252 238 228 221 213 204 192 180 169 160 150 142
25 325 255 218 246 250 240 249 251 248 255 236 205 237 259 174 129 203 250 243 301 322 307 304 306 295 298 312 313 303 285 276 281 293 302 305 306 310 312 312 312 313 314 315 317 319 320 320 320 319 317 318 319 320 321 321 318 316 316 317 315 313 314 315 316 315 315 314 313 311 306 296 285 270 252 236 226 216 206 195 185 175 165 155 148 142
14 320 251 195 215 237 222 232 273 279 254 187 205 255 280 108 192 228 224 245 301 298 286 283 275 273 285 292 287 282 280 279 284 291 297 300 301 305 309 311 311 313 315 317 319 322 322 321 321 320 318 319 321 321 322 321 318 315 316 315 313 313 315 316 316 315 315 314 312 309 303 294 283 268 249 233 221 209 198 188 180 172 164 156 150 145
173 181 237 219 189 160 198 232 273 281 259 165 131 324 4 171 225 229 249 272 253 254 271 274 263 272 288 288 283 282 285 289 293 295 297 300 301 303 306 309 310 312 315 318 320 322 323 322 320 319 319 320 321 322 323 322 317 315 315 313 312 314 315 315 315 315 314 313 311 307 302 292 280 264 243 227 216 205 193 183 176 170 163 158 151 145
187 181 212 231 191 150 182 218 228 231 225 189 141 184 235 234 214 191 278 274 245 233 248 259 265 268 269 276 283 286 289 293 295 297 299 299 301 302 304 307 309 311 313 317 319 321 323 322 320 320 320 321 322 323 324 322 318 315 314 313 314 315 315 315 315 315 313 312 309 306 300 291 275 257 238 222 211 200 190 181 174 169 165 161 155 148
218 194 185 220 222 195 197 223 238 236 228 221 205 215 237 244 223 194 227 253 252 238 235 257 279 277 268 273 282 286 289 292 293 296 298 297 298 300 300 303 307 309 312 315 317 321 323 321 319 319 320 322 324 324 324 323 319 315 313 314 315 316 315 315 315 313 312 311 308 304 299 287 268 249 232 218 206 196 187 179 174 171 168 164 159 153
241 194 165 205 253 269 249 242 249 260 265 262 257 245 236 237 235 224 228 238 243 246 249 258 273 280 283 283 284 285 287 290 292 293 294 294 295 297 299 301 305 308 312 315 316 319 320 319 318 319 319 321 324 324 324 323 320 315 313 314 315 315 315 315 313 311 310 309 306 302 296 280 259 241 226 213 203 196 189 183 178 174 171 167 164 161
265 189 194 229 262 287 272 251 242 250 263 276 288 282 267 259 255 233 219 229 238 248 257 259 265 277 281 276 274 278 280 285 288 289 291 293 293 295 298 300 304 308 310 312 313 315 316 316 315 316 317 319 321 323 322 321 319 316 315 315 315 315 315 314 312 310 309 307 304 300 290 270 250 234 219 208 201 195 190 186 181 176 173 170 167 166
260 221 235 240 240 245 260 267 266 261 263 270 276 278 277 275 274 260 235 237 247 255 261 262 265 271 274 271 270 272 276 281 281 282 286 288 287 290 294 297 301 306 308 309 310 312 313 311 310 312 313 316 319 320 320 319 318 318 317 316 315 316 315 314 312 310 307 304 300 294 283 265 245 229 214 205 200 194 190 188 185 182 179 177 173 170
151 250 237 230 247 261 271 275 276 277 275 265 259 263 263 259 260 261 254 253 258 261 264 267 266 262 261 266 269 270 274 276 273 273 278 281 282 286 290 294 299 302 304 305 307 309 308 307 306 308 310 312 316 319 318 317 317 318 318 317 316 316 315 313 311 309 306 303 297 288 277 261 242 226 213 205 200 196 193 191 189 186 183 182 179 173
197 244 238 235 265 261 257 261 265 275 278 264 252 257 257 248 245 252 259 262 263 265 269 275 275 270 263 262 260 258 265 271 272 271 271 273 279 284 287 291 295 297 299 302 304 304 304 304 305 307 309 312 315 318 317 316 316 316 317 317 316 316 314 312 311 308 305 301 293 282 269 253 237 224 213 204 197 193 190 191 192 189 184 182 182 177
215 236 224 219 245 253 256 258 254 257 268 270 264 255 253 255 253 255 260 263 265 269 272 272 275 276 274 269 264 253 242 254 266 270 270 273 279 282 285 287 289 290 294 297 299 299 300 302 305 306 308 312 315 316 316 315 314 314 315 316 316 315 314 311 309 305 302 299 291 279 264 247 233 221 211 203 195 186 177 173 178 184 184 181 180 179